Regional Weather Roundup
Issued by NWS Pendleton, OR

Home | Current Version | Previous Version | Text Only | Print | Product List | Glossary On
Versions: 1 2 3 4 5 6 7 8 9 10 11 12 13 14 15 16 17 18 19 20 21 22 23 24 25 26 27 28 29 30 31 32 33 34 35 36 37 38 39 40 41 42
000
ASUS46 KPDT 271510
RWRPDT
PENDLETON REGIONAL WEATHER ROUNDUP
NATIONAL WEATHER SERVICE PENDLETON OREGON
700 AM PST SAT DEC 27 2014

NOTE: FAIR INDICATES FEW OR NO CLOUDS BELOW 12,000 FEET WITH NO
SIGNIFICANT WEATHER AND/OR OBSTRUCTIONS TO VISIBILITY.

# INDICATES UNOFFICIAL STATION AND DATA

WAZ520-271610-
EAST SLOPES OF WASHINGTON CASCADES

CITY            SKY/WX      TMP DP  RH  WIND    PRES   REMARKS
#BULLFROG 2SW   N/A         36  36  100 CALM    27.71F
#BUMPING DAM    N/A         30  N/A N/A S1      N/A
#CLE ELUM HS    N/A         34  31  89  CALM    30.10F
#CLE ELUM 2NW   N/A         31  30  96  CALM    N/A
#CLE ELUM LAKE  N/A         31  30  96  CALM    30.18F
#CLIFFDEL 2NW   N/A         29  27  92  CALM    N/A
#EASTON DOT     N/A         33  32  96  N1      N/A
#GLENWOOD       N/A         30  29  96  CALM    30.29F
#MANASTASH CYN  N/A         28  23  81  CALM    30.08F
#NELSON         N/A         33  31  92  CALM    30.22F
#NELSON 3SW     N/A         31  30  96  CALM    30.41F
#NILE           N/A         26  25  96  CALM    29.47F
#PEOH POINT     N/A         29  29  100 S2      N/A
#RONALD 2NW     N/A         33  30  89  CALM    29.99F
#SNOWDEN        N/A         38  35  89  CALM    N/A
#SOUTH BLEWITT  N/A         26  24  92  CALM    N/A
#TEANAWAY 4NE   N/A         29  28  96  CALM    N/A
#TROUT LAKE HS  N/A         37  36  96  CALM    N/A
#TROUT LAKE 1NE N/A         34  32  92  CALM    30.27F
$$

WAZ521-271610-
SIMCOE HIGHLANDS

CITY            SKY/WX      TMP DP  RH  WIND    PRES   REMARKS
#BICKLETON HS   N/A         34  31  89  W7      34.25S
#SATUS PASS DOT N/A         32  31  96  CALM    N/A
#CENTERVILLE 1SWN/A         36  33  89  CALM    30.24F
#GOLDENDALE     N/A         34  33  96  CALM    N/A
#GOLDENDALE 1NE N/A         34  33  96  CALM    N/A
#GOLDENDALE 1S  N/A         34  33  96  CALM    30.17F
#GOLDENDALE 5WNWN/A         35  34  96  CALM    30.26F
#GOODNOE HILLS  N/A         38  34  85  W9      N/A
#LYLE 6NE       N/A         37  36  96  CALM    30.24F
$$

WAZ026-271610-
KITTITAS VALLEY

CITY            SKY/WX      TMP DP  RH  WIND    PRES   REMARKS
ELLENSBURG AP   MOCLDY      30  25  81  E3      30.15F
#ELLENSBURG CWU N/A         27  24  88  CALM    30.18S
#ELLENSBURG 3NE N/A         30  26  85  E2      30.15F
#ELLENSBURG     N/A         30  30  100 CALM    N/A
#ELLENSBURG 1E  N/A         26  22  85  CALM    N/A
#KITTITAS 4N    N/A         32  26  78  CALM    30.20F
#KITTITAS 3S    N/A         24  22  92  CALM    30.23F
#THORP 6N       N/A         33  30  89  CALM    30.22F
$$

WAZ027-271610-
YAKIMA VALLEY

CITY            SKY/WX      TMP DP  RH  WIND    PRES   REMARKS
YAKIMA AIRPORT  CLOUDY      29  25  85  CALM    30.21F
YAKIMA-VAGABOND MOCLDY      29  25  85  SE3     30.19F
#DONALD 2NE     N/A         30  25  81  CALM    29.03F
#GRANDVIEW      N/A         32  29  89  CALM    30.26F
#MABTON         N/A         31  29  92  CALM    30.21F
#MOXEE 2E       N/A         44  30  58  E5      29.97F
#NACHES 2SW     N/A         30  26  85  CALM    30.16F
#TERRACE HTS    N/A         28  25  88  CALM    30.22F
#TOPPENISH      N/A         30  27  88  CALM    30.17F
#WAPATO 4NE     N/A         30  25  81  CALM    29.03F
#WEST VALLEY    N/A         29  25  85  CALM    30.24S
#W YAKIMA       N/A         30  25  81  W3      30.25F
#WHITE SWAN 5E  N/A         29  27  92  CALM    30.26F
#WILEY CITY 3W  N/A         28  23  81  CALM    30.22F
$$

WAZ028-271610-
LOWER COLUMBIA BASIN...WASHINGTON

CITY            SKY/WX      TMP DP  RH  WIND    PRES   REMARKS
PASCO           MOCLDY      36  34  92  S3      30.24F
PROSSER AWOS    N/A         34  34  100 N5      30.25F
RICHLAND AWOS   CLOUDY      36  34  92  SE3     30.23F
#BASIN CITY 5SW N/A         32  30  92  CALM    30.22F
#CONNELL 5N     N/A         33  31  92  E2      30.24F
#CONNELL 5NW    N/A         33  31  92  CALM    30.20F
#ELTOPIA        N/A         35  33  92  E2      30.21F
#ELTOPIA 6NW    N/A         33  32  96  S1      29.17
#KAHLOTUS       N/A         35  31  85  W5      30.24F
#KENNEWICK      N/A         36  36  100 CALM    27.71F
#KENNEWICK 3S   N/A         39  33  79  S8      30.24F
#PASCO-BROADMOORN/A         35  30  82  CALM    30.16F
#PATERSON       N/A         32  30  92  CALM    30.25F
#PROSSER DOT    N/A         32  31  96  SE8     N/A
#PROSSER        N/A         36  32  85  NE2     30.24F
#SAGEMOOR 2W    N/A         33  31  92  S1      30.09F
#TOUCHET 2S     N/A         42  33  70  E2      30.25S
#WEST PASCO     N/A         35  32  89  CALM    30.27F
$$

WAZ029-271610-
FOOTHILLS OF THE BLUES...WASHINGTON

CITY            SKY/WX      TMP DP  RH  WIND    PRES   REMARKS
WALLA WALLA AP  CLOUDY      42  32  67  S13     30.23F WCI 35
#COLLEGE PLACE  N/A         41  30  65  SE3     30.25F
#DAYTON SCHOOL  N/A         40  28  62  S9      30.22F
#DELANEY DOT    N/A         40  30  67  S7      N/A
#LOWDEN 2SE     N/A         41  33  73  CALM    30.22F
#PLEASANT VIEW 1N/A         34  31  89  S7      30.30F
#PRESCOTT       N/A         38  34  85  CALM    30.26F
#SUDBURY        N/A         39  N/A N/A CALM    N/A
#WHITMAN COLLEGEN/A         42  34  73  S3      30.32S
#WAITSBURG 5S   N/A         37  32  82  S12     30.36F WCI 29
#WAITSBURG 8N   N/A         36  19  50  S7      30.12F
#WALLA WALLA 5E N/A         42  34  73  S13     N/A    WCI 35
#WALLA WALLA U  N/A         42  34  73  CALM    30.27F
#WHITMAN MISSIONN/A         42  35  76  S5      30.29S
$$

WAZ030-271610-
BLUE MOUNTAINS...WASHINGTON

CITY            SKY/WX      TMP DP  RH  WIND    PRES   REMARKS
#DIXIE 5SE      N/A         34  28  78  S13     30.11S WCI 25
#SKI BLUEWOOD   N/A         28  26  92  CALM    30.20F
$$

ORZ009-041-WAZ024-271610-
COLUMBIA RIVER GORGE

CITY            SKY/WX      TMP DP  RH  WIND    PRES   REMARKS
HOOD RIVER AP   CLOUDY      39  37  92  CALM    30.26S
THE DALLES AP   CLOUDY      37  34  89  CALM    30.27F
#ARLINGTON AIRPON/A         38  35  89  W8      30.02S
#ARLINGTON HS   N/A         41  34  76  W5      30.22F
#CELILO DOT     N/A         40  33  76  CALM    N/A
#LYLE           N/A         38  35  89  CALM    30.29F
#MARYHILL       N/A         39  33  79  E1      N/A
#MARYHILL 2W    N/A         39  36  89  W2      N/A
#MOSIER 1S      N/A         40  37  89  CALM    30.27S
#MURDOCK        N/A         40  38  92  E2      30.30F
#RUFUS DOT      N/A         38  34  85  CALM    N/A

$$

ORZ510-271610-
NORTH CENTRAL OREGON

CITY            SKY/WX      TMP DP  RH  WIND    PRES   REMARKS
#CHENOWITH 1W   N/A         36  36  100 CALM    N/A
#COW CYN RST AREN/A         29  24  81  SW6     N/A
#DUFUR 9E       N/A         36  30  79  S16     30.31F WCI 26
#GRASS VALLEY   N/A         33  29  85  S2      N/A
#GRASS VALLEY 1SN/A         33  28  82  S8      30.32F
#KENT DOT       N/A         34  22  61  S10     N/A
#MAUPIN SCHOOL  N/A         32  30  92  CALM    30.27F
#MORO SCHOOL    N/A         36  32  85  S1      30.22F
#SHANIKO 5WSW   N/A         28  20  71  S14     N/A    WCI 17
#SHANIKO 4NW    N/A         30  24  78  S10     30.18F
#TYGH VALLEY 2NEN/A         30  28  92  CALM    30.31F
#WAPANITIA AIRPON/A         35  28  75  CALM    30.32F
#WASCO DOT      N/A         38  30  73  SW7     N/A
#WASCO 5NE      N/A         36  32  85  CALM    30.27F
$$

ORZ511-271610-
CENTRAL OREGON

CITY            SKY/WX      TMP DP  RH  WIND    PRES   REMARKS
BEND AIRPORT    MOCLDY      19  16  88  S8      30.26S
MADRAS AIRPORT  CLOUDY      28  27  96  SE6     30.27F
PRINEVILLE AP   MOCLDY      25  23  92  S5      30.26F
REDMOND AIRPORT MOCLDY      23  20  88  E5      30.25S
#BEND 1SW       N/A         24  22  92  SW2     N/A
#BEND-AWBREY    N/A         30  25  81  S13     30.35F WCI 20
#BEND-KIM LN    N/A         28  24  85  SW7     30.20F
#CROOKED RVR RANN/A         28  24  85  CALM    30.35F
#LAKE BILLY CHINN/A         28  21  75  CALM    30.35F
#POWELL BUTTE 3EN/A         28  21  75  E7      N/A
#POWELL BUTTE   N/A         25  21  84  S2      29.85F
#PRINEVILLE 3N  N/A         23  21  92  NE3     30.35S
#WARM SPRINGS   N/A         28  26  92  CALM    30.26S


ORZ509-271610-
EAST SLOPES OF OREGON CASCADES

CITY            SKY/WX      TMP DP  RH  WIND    PRES   REMARKS
#BLUE BOX PASS  N/A         31  -17 11  CALM    N/A
#BLACK BUTTE RNCN/A         25  24  96  CALM    30.36S
#CAMP SHERMAN   N/A         22  19  88  CALM    30.43F
#LA PINE DOT    N/A         16  13  88  SW2     N/A
#LA PINE 4NW    N/A         15  11  84  CALM    30.50R
#LAVA BUTTE DOT N/A         20  18  92  CALM    N/A
#MT BACHELOR-MIDN/A         26  24  92  E12     N/A    WCI 15
#SISTERS AIRPOR N/A         21  21  100 CALM    30.17S
#SISTERS ODOT   N/A         22  N/A N/A CALM    N/A
#SISTERS 3N     N/A         22  16  77  CALM    30.22F
#SUNRIVER       N/A         19  17  92  CALM    30.33S
#TUMALO 3W      N/A         29  19  66  S3      30.22S
#WANOGA BUTTE D N/A         23  17  77  W5      N/A

$$

ORZ044-271610-
LOWER COLUMBIA BASIN...OREGON

CITY            SKY/WX      TMP DP  RH  WIND    PRES   REMARKS
HERMISTON       MOCLDY      37  31  79  S3      30.23F
#BOARDMAN 3W    N/A         32  31  96  CALM    29.94F
#BOARDMAN 8SW   N/A         35  33  92  CALM    30.25F
#ECHO 8SW       N/A         39  30  70  CALM    30.20F
#IONE SCHOOL    N/A         44  31  60  S8      30.22F
#IRRIGON 4NW    N/A         31  31  100 E2      N/A
#UMATILLA SCHOOLN/A         30  30  100 S1      30.32R
#UMATILLA       N/A         35  29  78  CALM    30.22F
$$

ORZ507-271610-
NORTHERN FOOTHILLS OF THE BLUES

CITY            SKY/WX      TMP DP  RH  WIND    PRES   REMARKS
PENDLETON AIRPT CLOUDY      38  28  67  S9      30.23F
#ADAMS 3WNW     N/A         35  30  82  CALM    30.30F
#ATHENA         N/A         36  31  82  SE2     30.31F
#CAYUSE         N/A         40  32  73  S15     30.27F WCI 32
#HELIX SCHOOL   N/A         36  31  82  S6      30.30F
#HELIX 3N       N/A         35  30  82  S8      30.17F
#HOLDMAN 5SE    N/A         36  31  82  CALM    30.22F
#HOLDMAN 6E     N/A         35  30  82  NW6     30.09F
#M-F GROVE ELEM N/A         41  29  62  SE1     30.21F
#M-FREEWATER 5SEN/A         40  32  73  E7      30.22F
#PENDLETON DNTN N/A         39  29  67  CALM    29.05S
#PDT AQUATIC CTRN/A         41  30  65  W3      30.20F
#PENDLETON 5NE  N/A         36  30  79  CALM    30.18F
#PENDLETON 7NW  N/A         37  30  75  S2      N/A
#PILOT ROCK     N/A         39  25  57  SE12    30.24S WCI 32
#TUTUILLA       N/A         39  32  76  S7      30.28F
#UMAPINE 2E     N/A         42  35  76  S6      30.21F
#WESTON SCHOOL  N/A         36  28  72  S8      30.19F

$$

ORZ508-271610-
SOUTHERN FOOTHILLS OF THE BLUES

CITY            SKY/WX      TMP DP  RH  WIND    PRES   REMARKS
LEXINGTON       CLOUDY      39  32  76  CALM    30.24F
#AJAX           N/A         37  21  52  S5      30.14S
#CONDON SCHOOL  N/A         32  28  85  CALM    30.16S
#CONDON 5W      N/A         31  24  75  SW12    30.16F WCI 22
#FOSSIL SCHOOL  N/A         33  27  78  E5      30.18F
#HEPPNER EOC    N/A         38  29  70  S5      30.24F
#HEPPNER 4NE    N/A         35  29  78  CALM    30.30S
#LEXINGTON 2SE  N/A         41  30  65  S7      30.21R
#MIKKALO        N/A         39  27  62  S7      30.20F
#RUGGS 2SW      N/A         35  29  78  S12     30.33S WCI 27

$$

ORZ502-503-271610-
BLUE MOUNTAINS

CITY            SKY/WX      TMP DP  RH  WIND    PRES   REMARKS
MEACHAM         LGT SNOW    28  25  88  CALM    30.18F FOG
#BATTLE MTN DOT N/A         23  23  100 SE8     N/A
#HARDMAN 10S    N/A         23  22  96  S3      30.50S
#HEPPNER 15SE   N/A         30  28  92  CALM    30.09F
#LADD CYN SMT   N/A         22  15  74  SE14    N/A    WCI  9
#LADD CREEK ODOTN/A         25  18  74  SW6     N/A
#LONG CREEK HS  N/A         29  27  92  CALM    30.19F
#N POWDER DOT   N/A         19  18  96  CALM    N/A
#PIKES PEAK     N/A         32  29  89  S22     27.99S WCI 19
#TOLLGATE       N/A         25  24  96  CALM    30.04F
#TROY SCHOOL    N/A         29  25  85  NW1     30.21F
#UKIAH          N/A         19  17  92  CALM    30.50F
#WESTON 4E      N/A         30  28  92  CALM    30.27F
$$

ORZ505-271610-
JOHN DAY BASIN

CITY            SKY/WX      TMP DP  RH  WIND    PRES   REMARKS
JOHN DAY        PTCLDY      22  18  84  E8      30.26F
#DAYVILLE SCHOOLN/A         32  29  89  CALM    30.16S
#MONUMENT HS    N/A         27  22  81  CALM    30.30F
#MT. VERNON 5SE N/A         22  19  88  CALM    30.20S
#WINLOCK        N/A         28  23  81  CALM    30.31F
$$

ORZ506-271610-
OCHOCO AND JOHN DAY HIGHLANDS

CITY            SKY/WX      TMP DP  RH  WIND    PRES   REMARKS
#BUCK CREEK DOT N/A         22  22  100 CALM    N/A
#HORSE RIDGE DO N/A          7   3  83  CALM    N/A
#KEYES SMT DOT  N/A         19  17  92  CALM    N/A
#PAULINA SCHOOL N/A         N/A N/A N/A CALM    30.22F
#SENECA         N/A          8  N/A N/A CALM    N/A
#SENECA 9NW     N/A         10   8  91  CALM    30.49R
$$

ORZ049-271610-
GRANDE RONDE VALLEY

CITY            SKY/WX      TMP DP  RH  WIND    PRES   REMARKS
LA GRANDE       CLOUDY      34  18  51  S9      30.24F
#COVE           N/A         29  24  81  CALM    30.03S
#COVE SCHOOL    N/A         29  24  81  CALM    30.21F
#COVE 6NW       N/A         27  21  78  SE6     30.45S
#ELGIN 3N       N/A         29  17  60  W8      29.94F
#ELGIN 1E       N/A         31  23  72  S1      N/A
#ISLAND CITY 4N N/A         42  42  100 CALM    30.27S
#LADD CYN DOT   N/A         29  18  63  S22     N/A    WCI 15
#UNION 1S       N/A         27  21  78  SE15    30.31F WCI 15
$$

ORZ050-271610-
WALLOWA COUNTY

CITY            SKY/WX      TMP DP  RH  WIND    PRES   REMARKS
#ENTERPRISE AP  N/A         23  15  71  E1      30.13S
#ENTERPRISE HS  N/A         20  16  84  CALM    30.21S
#IMNAHA SCHOOL  N/A         30  20  66  S3      30.27F
#IMNAHA 10S     N/A         25  19  78  SW5     30.22F
#JOSEPH 3N      N/A         23  17  77  S1      30.18F
#JOSEPH 3W      N/A         24  14  65  CALM    29.97S
#LOSTINE        N/A         18  15  88  CALM    30.23F
#MT HOWARD 8000 N/A         14  12  92  CALM    29.97R
#PROMISE 1S     N/A         25  21  84  W2      30.46F
#SHEEP RDG 7000 N/A         18  16  92  CALM    30.42F
#WALLOWA SCHOOL N/A         20  17  88  CALM    31.43F



$$



USA.gov is the U.S. government's official web portal to all federal, state and local government web resources and services.